KC3SOZ Weather Reports


Display with metric or nautical units.
time (UTC)temp
F
wind
direction
speed
MPH
gust
MPH
rain 1hr
in
rain 24hr
in
rain mn
in
humidity
%
barometer
mb
20260504070223 33 121 0.0 0.0 0.00 0.00 0.00 99 1014.9
20260504060144 34 116 0.0 1.0 0.00 0.00 0.00 99 1014.9
20260504050612 35 122 0.0 0.0 0.00 0.00 0.00 97 1015.0
20260504050109 35 121 0.0 0.0 0.00 0.00 0.00 97 1015.1
20260504045606 36 122 0.0 0.0 0.00 0.00 0.00 97 1014.7
20260504045101 36 122 0.0 0.0 0.00 0.00 0.00 97 1014.8
20260504044559 35 122 0.0 0.0 0.00 0.00 0.00 97 1015.1
20260504044055 35 122 0.0 1.0 0.00 0.00 0.00 96 1014.8
20260504043553 36 122 0.0 0.0 0.00 0.00 0.00 96 1015.0
20260504043049 36 122 0.0 0.0 0.00 0.00 0.00 96 1015.0
20260504042547 36 122 0.0 2.0 0.00 0.00 0.00 96 1014.9
20260504042044 36 122 0.0 0.0 0.00 0.00 0.00 96 1014.8
20260504041539 36 122 0.0 0.0 0.00 0.00 0.00 96 1014.8
20260504041036 36 123 0.0 0.0 0.00 0.00 0.00 96 1015.0
20260504040533 36 123 0.0 0.0 0.00 0.00 0.00 95 1014.8
20260504040030 37 123 0.0 0.0 0.00 0.00 0.00 95 1014.7
20260504035527 37 123 0.0 0.0 0.00 0.00 0.00 95 1014.7
20260504035023 37 122 0.0 0.0 0.00 0.00 0.00 94 1014.6
20260504034521 37 122 0.0 0.0 0.00 0.00 0.00 94 1014.6
20260504034017 37 122 0.0 0.0 0.00 0.00 0.00 93 1014.4
20260504033516 37 127 0.0 0.0 0.00 0.00 0.00 93 1014.4
20260504033013 37 127 0.0 0.0 0.00 0.00 0.00 92 1014.2
20260504032509 38 126 0.0 0.0 0.00 0.00 0.00 92 1014.3
20260504032006 38 126 0.0 0.0 0.00 0.00 0.00 92 1014.4
20260504031503 38 131 0.0 0.0 0.00 0.00 0.00 92 1014.4
20260504030959 38 132 0.0 0.0 0.00 0.00 0.00 92 1014.4
20260504030457 39 133 0.0 0.0 0.00 0.00 0.00 92 1014.3
20260504025952 39 133 0.0 0.0 0.00 0.00 0.00 91 1014.2
20260504025450 39 162 0.0 0.0 0.00 0.00 0.00 90 1014.4
20260504024946 39 162 0.0 0.0 0.00 0.00 0.00 89 1014.3
20260504024443 40 162 0.0 0.0 0.00 0.00 0.00 88 1014.3
20260504023940 40 162 0.0 0.0 0.00 0.00 0.00 87 1014.3
20260504023437 40 162 0.0 0.0 0.00 0.00 0.00 87 1014.3
20260504022932 41 162 0.0 0.0 0.00 0.00 0.00 86 1014.5
20260504022429 41 162 0.0 0.0 0.00 0.00 0.00 85 1014.3
20260504021926 41 162 0.0 0.0 0.00 0.00 0.00 84 1014.1
20260504021423 42 162 0.0 0.0 0.00 0.00 0.00 85 1014.3
20260504020920 42 162 0.0 0.0 0.00 0.00 0.00 84 1014.2
20260504020417 42 162 0.0 0.0 0.00 0.00 0.00 82 1014.2
20260504015914 42 162 0.0 0.0 0.00 0.00 0.00 78 1014.4
20260504015410 43 162 0.0 0.0 0.00 0.00 0.00 79 1014.2
20260504014906 44 162 0.0 0.0 0.00 0.00 0.00 75 1014.4
20260504014402 44 162 0.0 0.0 0.00 0.00 0.00 75 1014.5
20260504013859 44 162 0.0 0.0 0.00 0.00 0.00 74 1014.2
20260504013357 45 162 0.0 0.0 0.00 0.00 0.00 74 1014.3
20260504012853 45 162 0.0 0.0 0.00 0.00 0.00 74 1014.3
20260504012351 46 162 0.0 0.0 0.00 0.00 0.00 73 1014.2
20260504011849 46 162 0.0 0.0 0.00 0.00 0.00 70 1014.0
20260504011345 46 162 0.0 0.0 0.00 0.00 0.00 69 1014.0
20260504010841 47 162 0.0 0.0 0.00 0.00 0.00 68 1014.0
20260504010337 48 162 0.0 1.0 0.00 0.00 0.00 67 1014.2
20260504005833 49 164 0.0 0.0 0.00 0.00 0.00 63 1013.8
20260504005330 49 162 0.0 0.0 0.00 0.00 0.00 61 1013.9
20260504004828 49 162 0.0 0.0 0.00 0.00 0.00 61 1013.9
20260504004325 50 166 1.0 2.0 0.00 0.00 0.00 61 1013.8
20260504003821 50 160 1.0 2.0 0.00 0.00 0.00 60 1014.0
20260504003319 51 167 1.0 2.0 0.00 0.00 0.00 58 1013.8
20260504002815 51 162 1.0 2.0 0.00 0.00 0.00 57 1013.7
20260504002312 52 203 1.0 2.0 0.00 0.00 0.00 55 1013.6
20260504001810 53 186 3.0 3.0 0.00 0.00 0.00 52 1013.4
20260504001307 53 188 3.0 3.0 0.00 0.00 0.00 51 1013.4
20260504000804 53 183 2.0 3.0 0.00 0.00 0.00 52 1013.5
20260504000301 54 160 0.0 3.0 0.00 0.00 0.00 50 1013.4
20260503235759 54 248 3.0 5.0 0.00 0.00 0.00 51 1013.3
20260503235256 55 197 4.0 6.0 0.00 0.00 0.00 48 1013.5
20260503234753 55 213 2.0 5.0 0.00 0.00 0.00 48 1013.1
20260503234251 56 180 1.0 5.0 0.00 0.00 0.00 48 1013.2
20260503233748 56 250 3.0 9.0 0.00 0.00 0.00 42 1013.0
20260503233244 57 217 2.0 5.0 0.00 0.00 0.00 43 1013.0
20260503232741 57 245 3.0 6.0 0.00 0.00 0.00 43 1013.2
20260503232238 57 254 3.0 7.0 0.00 0.00 0.00 42 1013.0
20260503231736 57 264 4.0 9.0 0.00 0.00 0.00 42 1013.1
20260503231233 57 283 4.0 15.0 0.00 0.00 0.00 42 1013.1
20260503230729 57 241 3.0 7.0 0.00 0.00 0.00 43 1013.0
20260503230226 57 230 6.0 10.0 0.00 0.00 0.00 44 1013.0
20260503225724 58 252 4.0 6.0 0.00 0.00 0.00 44 1012.7
20260503225224 58 184 3.0 6.0 0.00 0.00 0.00 44 1013.0
20260503224721 58 262 6.0 14.0 0.00 0.00 0.00 42 1013.0
20260503224219 58 226 5.0 9.0 0.00 0.00 0.00 42 1012.7
20260503223716 58 171 3.0 9.0 0.00 0.00 0.00 41 1013.0
20260503223213 59 280 7.0 9.0 0.00 0.00 0.00 39 1013.2
20260503222710 59 222 4.0 7.0 0.00 0.00 0.00 40 1013.0
20260503222208 59 249 6.0 14.0 0.00 0.00 0.00 41 1012.8
20260503221706 59 234 6.0 9.0 0.00 0.00 0.00 40 1013.2
20260503221203 59 274 6.0 10.0 0.00 0.00 0.00 40 1012.8
20260503220700 59 124 3.0 9.0 0.00 0.00 0.00 40 1013.1
20260503220156 59 242 3.0 10.0 0.00 0.00 0.00 42 1013.0
20260503215653 60 239 6.0 9.0 0.00 0.00 0.00 41 1013.2
20260503215150 60 225 6.0 9.0 0.00 0.00 0.00 42 1012.8
20260503214649 60 245 6.0 16.0 0.00 0.00 0.00 38 1013.0
20260503214144 61 241 5.0 8.0 0.00 0.00 0.00 41 1012.7
20260503213644 59 145 6.0 11.0 0.00 0.00 0.00 41 1013.0
20260503213140 60 227 4.0 8.0 0.00 0.00 0.00 40 1012.8
20260503212637 59 331 8.0 14.0 0.00 0.00 0.00 40 1012.6
20260503212135 58 259 6.0 8.0 0.00 0.00 0.00 41 1012.8
20260503211632 58 313 10.0 13.0 0.00 0.00 0.00 41 1012.8
20260503211127 58 331 5.0 10.0 0.00 0.00 0.00 40 1013.0
20260503210624 58 254 6.0 11.0 0.00 0.00 0.00 42 1013.0
20260503210121 58 270 5.0 14.0 0.00 0.00 0.00 42 1012.7
20260503205616 58 286 8.0 15.0 0.00 0.00 0.00 43 1012.6
20260503205113 59 259 5.0 9.0 0.00 0.00 0.00 40 1012.7
20260503204610 60 261 7.0 13.0 0.00 0.00 0.00 42 1012.7
20260503204107 58 260 4.0 7.0 0.00 0.00 0.00 40 1013.0
20260503203604 60 0 5.0 14.0 0.00 0.00 0.00 43 1012.6
20260503203101 59 213 7.0 10.0 0.00 0.00 0.00 42 1012.8
20260503202559 59 289 7.0 10.0 0.00 0.00 0.00 40 1012.8
20260503202057 59 258 5.0 10.0 0.00 0.00 0.00 42 1013.1
20260503201555 59 134 5.0 9.0 0.00 0.00 0.00 41 1013.0
20260503201052 58 204 6.0 8.0 0.00 0.00 0.00 45 1013.0
20260503200548 60 239 5.0 15.0 0.00 0.00 0.00 40 1013.2
20260503200045 60 302 5.0 9.0 0.00 0.00 0.00 43 1013.3
20260503195542 59 337 11.0 14.0 0.00 0.00 0.00 39 1013.1
20260503195039 59 222 5.0 11.0 0.00 0.00 0.00 39 1013.3
20260503194536 58 290 5.0 11.0 0.00 0.00 0.00 41 1013.3
20260503194035 58 347 6.0 9.0 0.00 0.00 0.00 41 1013.4
20260503193533 58 275 5.0 10.0 0.00 0.00 0.00 46 1013.3
20260503193028 59 304 5.0 8.0 0.00 0.00 0.00 41 1013.5
20260503192524 58 225 3.0 6.0 0.00 0.00 0.00 44 1013.7
20260503192020 59 250 4.0 6.0 0.00 0.00 0.00 42 1013.7
20260503191517 58 247 6.0 8.0 0.00 0.00 0.00 44 1013.8
20260503191014 56 324 4.0 10.0 0.00 0.00 0.00 42 1014.0
20260503190511 56 221 5.0 9.0 0.00 0.00 0.00 43 1014.0
20260503190008 58 269 5.0 15.0 0.00 0.00 0.00 42 1013.9
20260503185504 55 297 5.0 7.0 0.00 0.00 0.00 44 1014.1
20260503185004 56 299 4.0 9.0 0.00 0.00 0.00 41 1014.2
20260503184500 57 263 7.0 11.0 0.00 0.00 0.00 41 1014.3
20260503183957 56 279 6.0 10.0 0.00 0.00 0.00 43 1014.3
20260503183453 57 320 4.0 11.0 0.00 0.00 0.00 44 1014.2
20260503182950 57 264 7.0 14.0 0.00 0.00 0.00 41 1014.2
20260503182450 56 257 5.0 8.0 0.00 0.00 0.00 40 1014.2
20260503181946 55 290 7.0 20.0 0.00 0.00 0.00 43 1014.6
20260503181444 55 265 5.0 13.0 0.00 0.00 0.00 44 1014.4
20260503180939 55 255 5.0 9.0 0.00 0.00 0.00 47 1014.4
20260503180438 55 242 4.0 8.0 0.00 0.00 0.00 43 1014.4
20260503175934 56 323 6.0 13.0 0.00 0.00 0.00 44 1014.5
20260503175433 54 300 6.0 10.0 0.00 0.00 0.00 44 1014.4
20260503174928 55 216 4.0 10.0 0.00 0.00 0.00 46 1014.6
20260503174426 55 323 5.0 6.0 0.00 0.00 0.00 43 1014.8
20260503173926 55 258 5.0 15.0 0.00 0.00 0.00 47 1014.9
20260503173423 54 171 3.0 11.0 0.00 0.00 0.00 48 1014.7
20260503172920 54 247 8.0 14.0 0.00 0.00 0.00 44 1014.7
20260503172417 53 348 7.0 9.0 0.00 0.00 0.00 44 1014.7
20260503171913 55 284 6.0 13.0 0.00 0.00 0.00 47 1014.8
20260503171410 54 283 4.0 13.0 0.00 0.00 0.00 48 1015.1
20260503170908 53 74 5.0 13.0 0.00 0.00 0.00 49 1014.9
20260503170404 52 306 4.0 7.0 0.00 0.00 0.00 48 1015.3
20260503150756 51 32 2.0 6.0 0.00 0.00 0.00 50 1015.8
20260503150252 50 326 5.0 8.0 0.00 0.00 0.00 46 1016.0
20260503140217 47 317 7.0 13.0 0.00 0.00 0.00 52 1016.2
20260503131146 45 332 7.0 9.0 0.00 0.00 0.00 64 1016.2
20260503130643 45 311 4.0 6.0 0.00 0.00 0.00 65 1016.4
20260503130141 44 256 6.0 8.0 0.00 0.00 0.00 68 1016.6
20260503120106 42 289 3.0 3.0 0.00 0.00 0.00 73 1016.2
20260503110533 39 167 2.0 7.0 0.00 0.00 0.00 74 1015.9
20260503090421 41 111 2.0 2.0 0.00 0.00 0.00 73 1014.4
20260503081347 42 46 3.0 5.0 0.00 0.00 0.00 71 1014.2
20260503080844 42 39 4.0 6.0 0.00 0.00 0.00 72 1013.9
20260503080341 42 282 3.0 3.0 0.00 0.00 0.00 73 1014.0